,,Stat5,,Stat1,,Stat2,,Stat3,,Stat4,,Wind1,,Wind1,
time,status,PA1M_AVG,status,PR1M_SUM,status,RH1M_AVG,status,SR1M_AVG,status,TA1M_AVG,status,W1dAve1m,status,W1sAve1m,
2002-05-31, 00:00:01,VALID,918.421,VALID,0,VALID,98.159,VALID,-0.0339617,VALID,20.7288,VALID,76,VALID,1.27305,
2002-05-31, 00:01:00,VALID,918.374,VALID,0,VALID,98.1806,VALID,-0.0339617,VALID,20.7124,VALID,78,VALID,0.948214,
2002-05-31, 00:02:00,VALID,918.337,VALID,0,VALID,98.1895,VALID,-0.0169808,VALID,20.7159,VALID,67,VALID,1.13649,
2002-05-31, 00:03:00,VALID,918.305,VALID,0,VALID,98.1984,VALID,0,VALID,20.7223,VALID,88,VALID,0.576563,
2002-05-31, 00:04:00,VALID,918.278,VALID,0,VALID,98.2213,VALID,-0.0169808,VALID,20.7218,VALID,95,VALID,0.459044,
2002-05-31, 00:05:00,VALID,918.26,VALID,0,VALID,98.2454,VALID,-0.0509425,VALID,20.7382,VALID,111,VALID,0.35625,
2002-05-31, 00:06:00,VALID,918.254,VALID,0,VALID,98.2264,VALID,-0.0339617,VALID,20.7477,VALID,154,VALID,0.119531,
2002-05-31, 00:07:00,VALID,918.248,VALID,0,VALID,98.1984,VALID,-0.0339617,VALID,20.7546,VALID,133,VALID,0.0761161,
2002-05-31, 00:08:00,VALID,918.266,VALID,0,VALID,98.1602,VALID,-0.0339617,VALID,20.7643,VALID,86,VALID,0.152803,
2002-05-31, 00:09:00,VALID,918.271,VALID,0,VALID,98.0572,VALID,-0.0339617,VALID,20.7482,VALID,17,VALID,0.566016,
2002-05-31, 00:10:00,VALID,918.279,VALID,0,VALID,97.9492,VALID,0.0509425,VALID,20.731,VALID,16,VALID,0.643703,
2002-05-31, 00:11:00,VALID,918.291,VALID,0,VALID,97.9784,VALID,0.0849042,VALID,20.717,VALID,17,VALID,0.489509,
2002-05-31, 00:12:00,VALID,918.292,VALID,0,VALID,98.0089,VALID,0.0339617,VALID,20.7334,VALID,19,VALID,0.0236328,
2002-05-31, 00:13:00,VALID,918.3,VALID,0,VALID,97.9822,VALID,0.0339617,VALID,20.7635,VALID,19,VALID,0,
2002-05-31, 00:14:00,VALID,918.282,VALID,0,VALID,97.925,VALID,0.0169808,VALID,20.7598,VALID,19,VALID,0.0824908,
2002-05-31, 00:15:00,VALID,918.279,VALID,0,VALID,97.8042,VALID,0.0339617,VALID,20.7466,VALID,19,VALID,0.00234375,
2002-05-31, 00:16:00,VALID,918.266,VALID,0,VALID,97.41,VALID,0.0679233,VALID,20.6629,VALID,19,VALID,0.0660511,
2002-05-31, 00:17:00,VALID,918.262,VALID,0,VALID,96.9764,VALID,0.0679233,VALID,20.5498,VALID,19,VALID,0.388616,
2002-05-31, 00:18:00,VALID,918.256,VALID,0,VALID,96.8836,VALID,0.0509425,VALID,20.4817,VALID,19,VALID,0.238477,
2002-05-31, 00:19:00,VALID,918.25,VALID,0,VALID,97.0107,VALID,0.0169808,VALID,20.4526,VALID,19,VALID,0.164063,
2002-05-31, 00:20:00,VALID,918.258,VALID,0,VALID,97.1213,VALID,0.0679233,VALID,20.4593,VALID,19,VALID,0.0590533,
2002-05-31, 00:21:00,VALID,918.253,VALID,0,VALID,97.2434,VALID,0.0849042,VALID,20.4723,VALID,19,VALID,0.0837891,
2002-05-31, 00:22:00,VALID,918.24,VALID,0,VALID,97.3045,VALID,0,VALID,20.4954,VALID,19,VALID,0.0246212,
2002-05-31, 00:23:00,VALID,918.211,VALID,0,VALID,97.4558,VALID,0.0339617,VALID,20.5011,VALID,19,VALID,0,
2002-05-31, 00:24:00,VALID,918.188,VALID,0,VALID,97.5308,VALID,0,VALID,20.5274,VALID,19,VALID,0.0410156,
2002-05-31, 00:25:00,VALID,918.166,VALID,0,VALID,97.2828,VALID,-0.0679233,VALID,20.5064,VALID,19,VALID,0.504241,
2002-05-31, 00:26:00,VALID,918.127,VALID,0,VALID,96.7068,VALID,-0.0509425,VALID,20.3771,VALID,22,VALID,0.429458,
2002-05-31, 00:27:00,VALID,918.092,VALID,0,VALID,96.8518,VALID,-0.0509425,VALID,20.3252,VALID,28,VALID,0.536719,
2002-05-31, 00:28:00,VALID,918.056,VALID,0,VALID,97.2193,VALID,-0.0509425,VALID,20.3446,VALID,40,VALID,0.644413,
2002-05-31, 00:29:00,VALID,918.031,VALID,0,VALID,97.1417,VALID,-0.0679233,VALID,20.3416,VALID,39,VALID,0.552009,
2002-05-31, 00:30:00,VALID,917.998,VALID,0,VALID,96.7602,VALID,-0.0679233,VALID,20.2606,VALID,32,VALID,0.711133,
2002-05-31, 00:31:00,VALID,917.988,VALID,0,VALID,96.9281,VALID,-0.0169808,VALID,20.2315,VALID,28,VALID,0.803795,
2002-05-31, 00:32:00,VALID,917.999,VALID,0,VALID,96.9713,VALID,-0.0339617,VALID,20.2027,VALID,22,VALID,0.877987,
2002-05-31, 00:33:00,VALID,917.984,VALID,0,VALID,97.1493,VALID,-0.0509425,VALID,20.1833,VALID,27,VALID,1.1459,
2002-05-31, 00:34:00,VALID,918,VALID,0,VALID,97.5511,VALID,-0.0509425,VALID,20.2091,VALID,39,VALID,1.10275,
2002-05-31, 00:35:00,VALID,917.986,VALID,0,VALID,98.1068,VALID,-0.0509425,VALID,20.3055,VALID,48,VALID,1.35246,
2002-05-31, 00:36:00,VALID,917.974,VALID,0,VALID,98.173,VALID,-0.0679233,VALID,20.3935,VALID,56,VALID,1.2666,
2002-05-31, 00:37:00,VALID,917.96,VALID,0,VALID,98.1374,VALID,-0.0509425,VALID,20.4251,VALID,53,VALID,1.65,
2002-05-31, 00:38:00,VALID,917.927,VALID,0,VALID,97.9631,VALID,-0.0509425,VALID,20.4544,VALID,73,VALID,1.38511,
2002-05-31, 00:39:00,VALID,917.907,VALID,0,VALID,97.7953,VALID,-0.0509425,VALID,20.4385,VALID,77,VALID,1.37168,
2002-05-31, 00:40:00,VALID,917.874,VALID,0,VALID,97.8563,VALID,0,VALID,20.4372,VALID,68,VALID,1.38187,
2002-05-31, 00:41:00,VALID,917.823,VALID,0,VALID,97.7432,VALID,0,VALID,20.4275,VALID,72,VALID,1.18103,
2002-05-31, 00:42:00,VALID,917.792,VALID,0,VALID,97.7495,VALID,-0.0169808,VALID,20.4377,VALID,82,VALID,1.02832,
2002-05-31, 00:43:00,VALID,917.759,VALID,0,VALID,97.6732,VALID,-0.0339617,VALID,20.431,VALID,85,VALID,0.898438,
2002-05-31, 00:44:00,VALID,917.737,VALID,0,VALID,97.5422,VALID,0,VALID,20.3985,VALID,82,VALID,0.403263,
2002-05-31, 00:45:00,VALID,917.717,VALID,0,VALID,97.5855,VALID,0,VALID,20.3888,VALID,74,VALID,0.257617,
2002-05-31, 00:46:00,VALID,917.721,VALID,0,VALID,97.6058,VALID,0,VALID,20.389,VALID,68,VALID,0.0139678,
2002-05-31, 00:47:00,VALID,917.748,VALID,0,VALID,97.5893,VALID,0,VALID,20.3888,VALID,68,VALID,0,
2002-05-31, 00:48:00,VALID,917.767,VALID,0,VALID,97.644,VALID,0,VALID,20.3952,VALID,26,VALID,0.0947266,
2002-05-31, 00:49:00,VALID,917.803,VALID,0,VALID,97.8131,VALID,0,VALID,20.4574,VALID,329,VALID,0.269643,
2002-05-31, 00:50:00,VALID,917.822,VALID,0,VALID,97.8601,VALID,0.0169808,VALID,20.4723,VALID,311,VALID,0.423943,
2002-05-31, 00:51:00,VALID,917.817,VALID,0,VALID,97.8207,VALID,0.0169808,VALID,20.4894,VALID,313,VALID,0.360352,
2002-05-31, 00:52:00,VALID,917.815,VALID,0,VALID,97.4342,VALID,0,VALID,20.4087,VALID,346,VALID,0.394413,
2002-05-31, 00:53:00,VALID,917.776,VALID,0,VALID,97.1938,VALID,0,VALID,20.3309,VALID,4,VALID,0.0357143,
2002-05-31, 00:54:00,VALID,917.75,VALID,0,VALID,97.148,VALID,0,VALID,20.2889,VALID,5,VALID,0.0851562,
2002-05-31, 00:55:00,VALID,917.708,VALID,0,VALID,97.5003,VALID,0,VALID,20.305,VALID,9,VALID,0.17567,
2002-05-31, 00:56:00,VALID,917.665,VALID,0,VALID,97.6516,VALID,0,VALID,20.3441,VALID,9,VALID,0.0723805,
2002-05-31, 00:57:00,VALID,917.643,VALID,0,VALID,97.457,VALID,-0.0169808,VALID,20.3376,VALID,49,VALID,0.288086,
2002-05-31, 00:58:00,VALID,917.634,VALID,0,VALID,97.3833,VALID,0,VALID,20.2953,VALID,139,VALID,0.423295,
2002-05-31, 00:59:00,VALID,917.648,VALID,0,VALID,97.4621,VALID,-0.0169808,VALID,20.2797,VALID,152,VALID,0.627679,
2002-05-31, 01:00:00,VALID,917.657,VALID,0,VALID,97.5499,VALID,0,VALID,20.2665,VALID,157,VALID,0.645117,
2002-05-31, 01:01:00,VALID,917.683,VALID,0,VALID,97.5219,VALID,0,VALID,20.2673,VALID,161,VALID,0.807589,
2002-05-31, 01:02:00,VALID,917.702,VALID,0,VALID,97.5054,VALID,0,VALID,20.2283,VALID,164,VALID,0.778722,
2002-05-31, 01:03:00,VALID,917.696,VALID,0,VALID,97.4939,VALID,-0.0169808,VALID,20.182,VALID,167,VALID,0.651758,
2002-05-31, 01:04:00,VALID,917.694,VALID,0,VALID,97.3782,VALID,-0.0169808,VALID,20.1542,VALID,167,VALID,0.518939,
2002-05-31, 01:05:00,VALID,917.696,VALID,0,VALID,97.4863,VALID,0,VALID,20.1219,VALID,167,VALID,0.567187,
2002-05-31, 01:06:00,VALID,917.684,VALID,0,VALID,97.8004,VALID,0,VALID,20.1308,VALID,161,VALID,0.713281,
2002-05-31, 01:07:00,VALID,917.66,VALID,0,VALID,97.9542,VALID,0,VALID,20.1664,VALID,154,VALID,0.0765625,
2002-05-31, 01:08:00,VALID,917.628,VALID,0,VALID,97.9415,VALID,0,VALID,20.1726,VALID,154,VALID,0.0726103,
2002-05-31, 01:09:00,VALID,917.591,VALID,0,VALID,97.9136,VALID,-0.0169808,VALID,20.1567,VALID,154,VALID,0,
2002-05-31, 01:10:00,VALID,917.561,VALID,0,VALID,97.9568,VALID,-0.0169808,VALID,20.1535,VALID,154,VALID,0.0227273,
2002-05-31, 01:11:00,VALID,917.545,VALID,0,VALID,98.0038,VALID,0,VALID,20.1736,VALID,185,VALID,0.302679,
2002-05-31, 01:12:00,VALID,917.541,VALID,0,VALID,98.1399,VALID,-0.0339617,VALID,20.1761,VALID,243,VALID,0.64375,
2002-05-31, 01:13:00,VALID,917.531,VALID,0,VALID,98.3535,VALID,-0.0169808,VALID,20.2479,VALID,241,VALID,0.674777,
2002-05-31, 01:14:00,VALID,917.544,VALID,0,VALID,98.543,VALID,-0.0339617,VALID,20.3155,VALID,253,VALID,0.778722,
2002-05-31, 01:15:00,VALID,917.561,VALID,0,VALID,98.6346,VALID,-0.0339617,VALID,20.3766,VALID,246,VALID,0.672656,
2002-05-31, 01:16:00,VALID,917.553,VALID,0,VALID,98.6409,VALID,0,VALID,20.4127,VALID,246,VALID,0.616004,
2002-05-31, 01:17:00,VALID,917.571,VALID,0,VALID,98.6358,VALID,-0.0169808,VALID,20.4221,VALID,258,VALID,0.437277,
2002-05-31, 01:18:00,VALID,917.578,VALID,0,VALID,98.6409,VALID,0,VALID,20.4418,VALID,230,VALID,0.684375,
2002-05-31, 01:19:00,VALID,917.574,VALID,0,VALID,98.6384,VALID,0,VALID,20.4673,VALID,245,VALID,0.489509,
2002-05-31, 01:20:01,VALID,917.565,VALID,0,VALID,98.5735,VALID,0.0169808,VALID,20.4509,VALID,261,VALID,0.240579,
2002-05-31, 01:21:00,VALID,917.561,VALID,0,VALID,98.4196,VALID,0,VALID,20.4186,VALID,255,VALID,0,
2002-05-31, 01:22:00,VALID,917.558,VALID,0,VALID,98.2442,VALID,0,VALID,20.3664,VALID,255,VALID,0,
2002-05-31, 01:23:00,VALID,917.539,VALID,0,VALID,98.1526,VALID,-0.0169808,VALID,20.3182,VALID,255,VALID,0,
2002-05-31, 01:24:00,VALID,917.513,VALID,0,VALID,98.0992,VALID,0.0169808,VALID,20.28,VALID,255,VALID,0.0146484,
2002-05-31, 01:25:00,VALID,917.489,VALID,0,VALID,98.0738,VALID,-0.0169808,VALID,20.2703,VALID,255,VALID,0.0669643,
2002-05-31, 01:26:01,VALID,917.472,VALID,0,VALID,98.0967,VALID,-0.0169808,VALID,20.2767,VALID,255,VALID,0,
2002-05-31, 01:27:00,VALID,917.467,VALID,0,VALID,98.0458,VALID,0,VALID,20.2832,VALID,255,VALID,0,
2002-05-31, 01:28:00,VALID,917.451,VALID,0,VALID,97.9771,VALID,0.0169808,VALID,20.2544,VALID,255,VALID,0,
2002-05-31, 01:29:00,VALID,917.443,VALID,0,VALID,97.9873,VALID,0,VALID,20.231,VALID,255,VALID,0,
2002-05-31, 01:30:00,VALID,917.442,VALID,0,VALID,98.0051,VALID,-0.0169808,VALID,20.2377,VALID,252,VALID,0.0582031,
2002-05-31, 01:31:00,VALID,917.441,VALID,0,VALID,98.1437,VALID,0,VALID,20.2827,VALID,231,VALID,0.279464,
2002-05-31, 01:32:01,VALID,917.456,VALID,0,VALID,98.2149,VALID,0.0169808,VALID,20.3379,VALID,211,VALID,0.262178,
2002-05-31, 01:33:00,VALID,917.469,VALID,0,VALID,98.1844,VALID,0,VALID,20.3411,VALID,186,VALID,0.505664,
2002-05-31, 01:34:00,VALID,917.477,VALID,0,VALID,98.1399,VALID,-0.0169808,VALID,20.3446,VALID,181,VALID,0.586411,
2002-05-31, 01:35:00,VALID,917.472,VALID,0,VALID,98.0814,VALID,0,VALID,20.3316,VALID,175,VALID,0.400446,
2002-05-31, 01:36:00,VALID,917.479,VALID,0,VALID,97.9441,VALID,-0.0169808,VALID,20.2996,VALID,167,VALID,0.197656,
2002-05-31, 01:37:00,VALID,917.474,VALID,0,VALID,97.8843,VALID,-0.0509425,VALID,20.2573,VALID,174,VALID,0.572098,
2002-05-31, 01:38:01,VALID,917.473,VALID,0,VALID,97.8284,VALID,-0.0169808,VALID,20.2248,VALID,165,VALID,0.440717,
2002-05-31, 01:39:00,VALID,917.483,VALID,0,VALID,97.7635,VALID,0,VALID,20.186,VALID,181,VALID,0.225,
2002-05-31, 01:40:00,VALID,917.491,VALID,0,VALID,97.8245,VALID,0.0339617,VALID,20.1892,VALID,197,VALID,0.226799,
2002-05-31, 01:41:00,VALID,917.493,VALID,0,VALID,97.8983,VALID,0.0169808,VALID,20.2024,VALID,201,VALID,0.0935268,
2002-05-31, 01:42:00,VALID,917.516,VALID,0,VALID,97.9835,VALID,0,VALID,20.2315,VALID,218,VALID,0.404297,
2002-05-31, 01:43:00,VALID,917.521,VALID,0,VALID,98.1984,VALID,0.0169808,VALID,20.2996,VALID,242,VALID,0.610268,
2002-05-31, 01:44:01,VALID,917.542,VALID,0,VALID,98.3001,VALID,0.0339617,VALID,20.3532,VALID,227,VALID,0.301241,
2002-05-31, 01:45:00,VALID,917.536,VALID,0,VALID,98.1819,VALID,0,VALID,20.347,VALID,226,VALID,0.0419922,
2002-05-31, 01:46:00,VALID,917.532,VALID,0,VALID,98.1157,VALID,0.0339617,VALID,20.3341,VALID,265,VALID,0.559896,
2002-05-31, 01:47:00,VALID,917.515,VALID,0,VALID,98.2124,VALID,0.0169808,VALID,20.3602,VALID,250,VALID,0.564732,
2002-05-31, 01:48:00,VALID,917.504,VALID,0,VALID,98.1933,VALID,0,VALID,20.3804,VALID,246,VALID,0.163867,
2002-05-31, 01:49:00,VALID,917.498,VALID,0,VALID,97.7711,VALID,0,VALID,20.2022,VALID,304,VALID,0.360268,
2002-05-31, 01:50:01,VALID,917.509,VALID,0,VALID,97.2917,VALID,0.0339617,VALID,20.1408,VALID,40,VALID,0.294118,
2002-05-31, 01:51:00,VALID,917.518,VALID,0,VALID,97.5677,VALID,0,VALID,20.0993,VALID,60,VALID,0.643164,
2002-05-31, 01:52:00,VALID,917.517,VALID,0,VALID,97.761,VALID,0.0169808,VALID,20.1219,VALID,71,VALID,0.878788,
2002-05-31, 01:53:00,VALID,917.507,VALID,0,VALID,97.7355,VALID,0,VALID,20.112,VALID,75,VALID,0.940625,
2002-05-31, 01:54:00,VALID,917.502,VALID,0,VALID,97.8182,VALID,0.0169808,VALID,20.0821,VALID,93,VALID,0.751172,
2002-05-31, 01:55:00,VALID,917.489,VALID,0,VALID,98.0407,VALID,0.0339617,VALID,20.0983,VALID,100,VALID,0.705134,
2002-05-31, 01:56:01,VALID,917.486,VALID,0,VALID,98.1424,VALID,0,VALID,20.1246,VALID,122,VALID,0.401654,
2002-05-31, 01:57:00,VALID,917.467,VALID,0,VALID,98.0865,VALID,0,VALID,20.1115,VALID,152,VALID,0.533008,
2002-05-31, 01:58:00,VALID,917.469,VALID,0,VALID,97.953,VALID,0.0169808,VALID,20.0595,VALID,147,VALID,0.436553,
2002-05-31, 01:59:00,VALID,917.485,VALID,0,VALID,98.1081,VALID,0.0339617,VALID,20.06,VALID,146,VALID,0.53058,
2002-05-31, 02:00:00,VALID,917.488,VALID,0,VALID,98.2149,VALID,0.0339617,VALID,20.0692,VALID,155,VALID,0.742578,
2002-05-31, 02:01:00,VALID,917.507,VALID,0,VALID,98.2976,VALID,0.0169808,VALID,20.0988,VALID,168,VALID,0.710268,
2002-05-31, 02:02:01,VALID,917.526,VALID,0,VALID,98.398,VALID,0.0679233,VALID,20.1209,VALID,165,VALID,0.784697,
2002-05-31, 02:03:00,VALID,917.547,VALID,0,VALID,98.4324,VALID,0.0339617,VALID,20.1535,VALID,171,VALID,0.673437,
2002-05-31, 02:04:00,VALID,917.564,VALID,0,VALID,98.454,VALID,0,VALID,20.1796,VALID,167,VALID,0.745028,
2002-05-31, 02:05:00,VALID,917.566,VALID,0,VALID,98.4769,VALID,0.0169808,VALID,20.2089,VALID,167,VALID,0.431473,
2002-05-31, 02:06:00,VALID,917.562,VALID,0,VALID,98.4209,VALID,0.0169808,VALID,20.2024,VALID,159,VALID,0.474609,
2002-05-31, 02:07:00,VALID,917.556,VALID,0,VALID,98.3306,VALID,0,VALID,20.1796,VALID,125,VALID,0.435491,
2002-05-31, 02:08:01,VALID,917.527,VALID,0,VALID,98.1386,VALID,0.0169808,VALID,20.1281,VALID,95,VALID,0.458869,
2002-05-31, 02:09:00,VALID,917.517,VALID,0,VALID,98.1793,VALID,0.0169808,VALID,20.1025,VALID,88,VALID,0.628516,
2002-05-31, 02:10:00,VALID,917.508,VALID,0,VALID,98.0115,VALID,0.0169808,VALID,20.0474,VALID,72,VALID,0.946733,
2002-05-31, 02:11:00,VALID,917.501,VALID,0,VALID,97.8678,VALID,0.0509425,VALID,19.9798,VALID,70,VALID,1.16272,
2002-05-31, 02:12:00,VALID,917.504,VALID,0,VALID,97.8347,VALID,0.0339617,VALID,19.892,VALID,75,VALID,1.23652,
2002-05-31, 02:13:00,VALID,917.489,VALID,0,VALID,97.9733,VALID,0.0339617,VALID,19.8337,VALID,77,VALID,1.33683,
2002-05-31, 02:14:01,VALID,917.476,VALID,0,VALID,98.0674,VALID,0,VALID,19.7723,VALID,75,VALID,1.01677,
2002-05-31, 02:15:00,VALID,917.468,VALID,0,VALID,98.1641,VALID,0,VALID,19.7211,VALID,84,VALID,1.04766,
2002-05-31, 02:16:00,VALID,917.467,VALID,0,VALID,98.4057,VALID,0,VALID,19.6918,VALID,80,VALID,1.34233,
2002-05-31, 02:17:00,VALID,917.454,VALID,0,VALID,98.6384,VALID,0.0169808,VALID,19.7283,VALID,78,VALID,1.36875,
2002-05-31, 02:18:00,VALID,917.445,VALID,0,VALID,98.6981,VALID,0.0509425,VALID,19.7146,VALID,84,VALID,1.28594,
2002-05-31, 02:19:00,VALID,917.438,VALID,0,VALID,98.7388,VALID,0,VALID,19.7149,VALID,87,VALID,1.06496,
2002-05-31, 02:20:01,VALID,917.443,VALID,0,VALID,98.8024,VALID,0,VALID,19.7144,VALID,87,VALID,1.15142,
2002-05-31, 02:21:00,VALID,917.437,VALID,0,VALID,98.8698,VALID,0.0339617,VALID,19.7141,VALID,79,VALID,1.21855,
2002-05-31, 02:22:00,VALID,917.43,VALID,0,VALID,98.9283,VALID,0,VALID,19.7273,VALID,83,VALID,1.33783,
2002-05-31, 02:23:00,VALID,917.427,VALID,0,VALID,98.9626,VALID,0.0169808,VALID,19.7472,VALID,79,VALID,1.36473,
2002-05-31, 02:24:00,VALID,917.415,VALID,0,VALID,98.9537,VALID,-0.0169808,VALID,19.7469,VALID,80,VALID,1.50957,
2002-05-31, 02:25:00,VALID,917.397,VALID,0,VALID,98.9944,VALID,-0.101885,VALID,19.7643,VALID,79,VALID,1.49866,
2002-05-31, 02:26:01,VALID,917.396,VALID,0,VALID,99.016,VALID,-0.0849042,VALID,19.7676,VALID,82,VALID,1.13074,
2002-05-31, 02:27:00,VALID,917.366,VALID,0,VALID,99.0109,VALID,-0.0849042,VALID,19.7708,VALID,60,VALID,1.17793,
2002-05-31, 02:28:00,VALID,917.366,VALID,0,VALID,99.0313,VALID,-0.101885,VALID,19.7872,VALID,57,VALID,1.35109,
2002-05-31, 02:29:00,VALID,917.355,VALID,0,VALID,99.0466,VALID,-0.0849042,VALID,19.7874,VALID,49,VALID,1.02388,
2002-05-31, 02:30:00,VALID,917.358,VALID,0,VALID,99.0516,VALID,-0.0849042,VALID,19.777,VALID,73,VALID,0.928516,
2002-05-31, 02:31:00,VALID,917.353,VALID,0,VALID,99.0898,VALID,-0.101885,VALID,19.7996,VALID,87,VALID,1.01161,
2002-05-31, 02:32:01,VALID,917.357,VALID,0,VALID,99.1025,VALID,-0.0849042,VALID,19.8158,VALID,86,VALID,1.34306,
2002-05-31, 02:33:00,VALID,917.356,VALID,0,VALID,99.1178,VALID,-0.0849042,VALID,19.8419,VALID,89,VALID,1.24063,
2002-05-31, 02:34:00,VALID,917.339,VALID,0,VALID,99.1457,VALID,-0.0849042,VALID,19.868,VALID,97,VALID,1.38447,
2002-05-31, 02:35:00,VALID,917.327,VALID,0,VALID,99.1394,VALID,-0.101885,VALID,19.8774,VALID,101,VALID,1.08393,
2002-05-31, 02:36:00,VALID,917.32,VALID,0,VALID,99.1394,VALID,-0.0849042,VALID,19.8578,VALID,116,VALID,1.28184,
2002-05-31, 02:37:01,VALID,917.297,VALID,0,VALID,99.1585,VALID,-0.0679233,VALID,19.8834,VALID,116,VALID,1.34085,
2002-05-31, 02:38:01,VALID,917.27,VALID,0,VALID,99.1623,VALID,-0.0679233,VALID,19.9,VALID,109,VALID,1.14017,
2002-05-31, 02:39:00,VALID,917.256,VALID,0,VALID,99.1674,VALID,-0.0339617,VALID,19.8933,VALID,108,VALID,1.44727,
2002-05-31, 02:40:01,VALID,917.241,VALID,0,VALID,99.1546,VALID,0.0509425,VALID,19.8801,VALID,100,VALID,1.18371,
2002-05-31, 02:41:01,VALID,917.23,VALID,0,VALID,99.1572,VALID,0.0679233,VALID,19.8503,VALID,110,VALID,1.25558,
2002-05-31, 02:42:01,VALID,917.231,VALID,0,VALID,99.1572,VALID,0.0339617,VALID,19.8473,VALID,112,VALID,1.3752,
2002-05-31, 02:43:01,VALID,917.216,VALID,0,VALID,99.161,VALID,0.0339617,VALID,19.8344,VALID,113,VALID,1.19487,
2002-05-31, 02:44:01,VALID,917.217,VALID,0,VALID,99.1597,VALID,0,VALID,19.811,VALID,115,VALID,1.11742,
2002-05-31, 02:45:00,VALID,917.21,VALID,0,VALID,99.161,VALID,0,VALID,19.8053,VALID,122,VALID,1.00801,
2002-05-31, 02:46:01,VALID,917.208,VALID,0,VALID,99.1623,VALID,0.0169808,VALID,19.7991,VALID,111,VALID,0.961174,
2002-05-31, 02:47:01,VALID,917.198,VALID,0,VALID,99.1826,VALID,0,VALID,19.7753,VALID,112,VALID,0.641964,
2002-05-31, 02:48:01,VALID,917.209,VALID,0,VALID,99.1763,VALID,0.0169808,VALID,19.7661,VALID,97,VALID,0.376953,
2002-05-31, 02:49:01,VALID,917.208,VALID,0,VALID,99.1953,VALID,0.0169808,VALID,19.7666,VALID,86,VALID,0.420089,
2002-05-31, 02:50:01,VALID,917.209,VALID,0,VALID,99.2055,VALID,0,VALID,19.7631,VALID,64,VALID,0.0110294,
2002-05-31, 02:51:01,VALID,917.217,VALID,0,VALID,99.203,VALID,0.0509425,VALID,19.7502,VALID,53,VALID,0.300586,
2002-05-31, 02:52:01,VALID,917.213,VALID,0,VALID,99.1941,VALID,0.0339617,VALID,19.7375,VALID,68,VALID,1.00308,
2002-05-31, 02:53:01,VALID,917.204,VALID,0,VALID,99.1915,VALID,0,VALID,19.7052,VALID,36,VALID,0.647768,
2002-05-31, 02:54:01,VALID,917.194,VALID,0,VALID,99.1686,VALID,0,VALID,19.647,VALID,28,VALID,0.789453,
2002-05-31, 02:55:01,VALID,917.171,VALID,0,VALID,99.1788,VALID,-0.0679233,VALID,19.6388,VALID,40,VALID,0.778795,
2002-05-31, 02:56:01,VALID,917.151,VALID,0,VALID,99.1852,VALID,-0.0849042,VALID,19.6289,VALID,31,VALID,0.820313,
2002-05-31, 02:57:01,VALID,917.13,VALID,0,VALID,99.2055,VALID,-0.101885,VALID,19.6292,VALID,22,VALID,0.966211,
2002-05-31, 02:58:01,VALID,917.116,VALID,0,VALID,99.2106,VALID,-0.0679233,VALID,19.6287,VALID,20,VALID,0.817708,
2002-05-31, 02:59:01,VALID,917.095,VALID,0,VALID,99.2297,VALID,-0.0339617,VALID,19.6448,VALID,40,VALID,1.01339,
2002-05-31, 03:00:01,VALID,917.103,VALID,0,VALID,99.2449,VALID,-0.0849042,VALID,19.6679,VALID,33,VALID,0.782812,
2002-05-31, 03:01:01,VALID,917.122,VALID,0,VALID,99.2551,VALID,-0.0849042,VALID,19.6801,VALID,20,VALID,0.667634,
2002-05-31, 03:02:01,VALID,917.138,VALID,0,VALID,99.2627,VALID,-0.0679233,VALID,19.7104,VALID,39,VALID,0.790441,
2002-05-31, 03:03:01,VALID,917.174,VALID,0,VALID,99.2653,VALID,-0.0679233,VALID,19.6868,VALID,53,VALID,0.386719,
2002-05-31, 03:04:01,VALID,917.208,VALID,0,VALID,99.2589,VALID,0.0169808,VALID,19.6861,VALID,53,VALID,0.365294,
2002-05-31, 03:05:01,VALID,917.222,VALID,0,VALID,99.2704,VALID,0,VALID,19.6888,VALID,51,VALID,0.367411,
2002-05-31, 03:06:01,VALID,917.247,VALID,0,VALID,99.2627,VALID,0,VALID,19.6863,VALID,51,VALID,0.244336,
2002-05-31, 03:07:00,VALID,917.28,VALID,0,VALID,99.2678,VALID,0,VALID,19.6692,VALID,54,VALID,0.273438,
2002-05-31, 03:08:00,VALID,917.29,VALID,0,VALID,99.2615,VALID,0.0339617,VALID,19.6535,VALID,58,VALID,0.223116,
2002-05-31, 03:09:00,VALID,917.282,VALID,0,VALID,99.2449,VALID,0.0679233,VALID,19.6339,VALID,58,VALID,0.0539063,
2002-05-31, 03:10:00,VALID,917.285,VALID,0,VALID,99.2462,VALID,-0.0679233,VALID,19.6157,VALID,58,VALID,0,
2002-05-31, 03:11:00,VALID,917.29,VALID,0,VALID,99.2386,VALID,-0.0679233,VALID,19.5896,VALID,104,VALID,0.48683,
2002-05-31, 03:12:00,VALID,917.285,VALID,0,VALID,99.2449,VALID,-0.0849042,VALID,19.5899,VALID,132,VALID,0.486133,
2002-05-31, 03:13:00,VALID,917.272,VALID,0,VALID,99.2564,VALID,-0.0849042,VALID,19.5901,VALID,115,VALID,0.313839,
2002-05-31, 03:14:00,VALID,917.261,VALID,0,VALID,99.2602,VALID,-0.0509425,VALID,19.5805,VALID,118,VALID,0.549862,
2002-05-31, 03:15:00,VALID,917.244,VALID,0,VALID,99.2627,VALID,-0.0679233,VALID,19.5805,VALID,97,VALID,0.593359,
2002-05-31, 03:16:00,VALID,917.231,VALID,0,VALID,99.2398,VALID,-0.101885,VALID,19.5385,VALID,76,VALID,0.78196,
2002-05-31, 03:17:00,VALID,917.223,VALID,0,VALID,99.2475,VALID,-0.0679233,VALID,19.5032,VALID,71,VALID,0.902009,
2002-05-31, 03:18:00,VALID,917.206,VALID,0,VALID,99.2538,VALID,-0.101885,VALID,19.4739,VALID,92,VALID,0.990039,
2002-05-31, 03:19:00,VALID,917.206,VALID,0,VALID,99.2754,VALID,-0.101885,VALID,19.497,VALID,108,VALID,1.08103,
2002-05-31, 03:20:00,VALID,917.198,VALID,0,VALID,99.2615,VALID,-0.118866,VALID,19.4935,VALID,112,VALID,1.19945,
2002-05-31, 03:21:00,VALID,917.179,VALID,0,VALID,99.2564,VALID,-0.101885,VALID,19.4813,VALID,111,VALID,1.41426,
2002-05-31, 03:22:00,VALID,917.175,VALID,0,VALID,99.25,VALID,-0.101885,VALID,19.4579,VALID,106,VALID,1.42614,
2002-05-31, 03:23:00,VALID,917.15,VALID,0,VALID,99.2309,VALID,-0.101885,VALID,19.4552,VALID,112,VALID,1.21116,
2002-05-31, 03:24:00,VALID,917.147,VALID,0,VALID,99.203,VALID,-0.0679233,VALID,19.4416,VALID,111,VALID,1.41875,
2002-05-31, 03:25:00,VALID,917.138,VALID,0,VALID,99.1941,VALID,0.0339617,VALID,19.447,VALID,113,VALID,1.30603,
2002-05-31, 03:26:00,VALID,917.127,VALID,0,VALID,99.161,VALID,0.0339617,VALID,19.4567,VALID,115,VALID,1.49058,
2002-05-31, 03:27:00,VALID,917.128,VALID,0,VALID,99.1292,VALID,0,VALID,19.4694,VALID,125,VALID,1.38652,
2002-05-31, 03:28:00,VALID,917.137,VALID,0,VALID,99.0936,VALID,0,VALID,19.4893,VALID,125,VALID,1.50521,
2002-05-31, 03:29:00,VALID,917.159,VALID,0,VALID,99.0364,VALID,0.0169808,VALID,19.492,VALID,139,VALID,1.27388,
2002-05-31, 03:30:00,VALID,917.158,VALID,0,VALID,98.9601,VALID,0.0169808,VALID,19.4923,VALID,134,VALID,1.29512,
2002-05-31, 03:31:00,VALID,917.16,VALID,0,VALID,98.9003,VALID,0,VALID,19.5086,VALID,141,VALID,1.06027,
2002-05-31, 03:32:00,VALID,917.145,VALID,0,VALID,98.8393,VALID,0.0509425,VALID,19.5114,VALID,124,VALID,1.41636,
2002-05-31, 03:33:00,VALID,917.129,VALID,0,VALID,98.7897,VALID,0,VALID,19.5375,VALID,124,VALID,0.835352,
2002-05-31, 03:34:00,VALID,917.108,VALID,0,VALID,98.6905,VALID,0,VALID,19.5571,VALID,141,VALID,1.04664,